CW6099 Weather Reports


Display with metric or nautical units.
time (UTC)temp
F
wind
direction
speed
MPH
gust
MPH
rain 1hr
in
rain 24hr
in
rain mn
in
humidity
%
barometer
mb
20260904180256 93 178 6.0 8.0 0.00 0.00 0.00 41 1013.7
20260904180148 93 143 5.0 9.0 0.00 0.00 0.00 40 1013.8
20260904175718 92 159 6.0 10.0 0.00 0.00 0.00 40 1013.8
20260904175255 92 198 6.0 12.0 0.00 0.00 0.00 43 1013.9
20260904175207 92 192 7.0 12.0 0.00 0.00 0.00 43 1013.9
20260904174656 92 182 8.0 12.0 0.00 0.00 0.00 45 1014.0
20260904174253 91 225 6.0 10.0 0.00 0.00 0.00 46 1014.0
20260904174146 91 257 6.0 10.0 0.00 0.00 0.00 45 1014.0
20260904173657 90 223 5.0 10.0 0.00 0.00 0.00 45 1014.1
20260904173253 88 182 6.0 11.0 0.00 0.00 0.00 51 1014.1
20260904173207 88 236 6.0 9.0 0.00 0.00 0.00 52 1014.1
20260904172659 87 228 7.0 12.0 0.00 0.00 0.00 51 1014.1
20260904172252 87 186 6.0 12.0 0.00 0.00 0.00 49 1014.1
20260904172219 87 220 7.0 12.0 0.00 0.00 0.00 49 1014.1
20260904171709 87 198 8.0 12.0 0.00 0.00 0.00 48 1014.1
20260904171244 87 179 8.0 12.0 0.00 0.00 0.00 50 1014.0
20260904171158 87 197 8.0 12.0 0.00 0.00 0.00 50 1014.0
20260904170647 87 190 7.0 11.0 0.00 0.00 0.00 50 1013.9
20260904170244 87 236 8.0 11.0 0.00 0.00 0.00 52 1013.9
20260904170157 86 219 8.0 11.0 0.00 0.00 0.00 51 1013.8
20260904165708 86 194 9.0 13.0 0.00 0.00 0.00 53 1013.9
20260904165242 85 211 8.0 11.0 0.00 0.00 0.00 55 1013.9
20260904165153 85 204 7.0 11.0 0.00 0.00 0.00 53 1013.9
20260904164703 84 199 8.0 11.0 0.00 0.00 0.00 53 1013.9
20260904164320 83 175 5.0 11.0 0.00 0.00 0.00 57 1014.0
20260904164211 83 191 5.0 11.0 0.00 0.00 0.00 57 1013.9
20260904163639 81 206 7.0 11.0 0.00 0.00 0.00 58 1014.0
20260904163256 81 228 7.0 12.0 0.00 0.00 0.00 60 1014.0
20260904163150 81 206 6.0 12.0 0.00 0.00 0.00 60 1014.0
20260904162658 80 234 9.0 12.0 0.00 0.00 0.00 60 1014.0
20260904162254 80 193 7.0 14.0 0.00 0.00 0.00 62 1013.9
20260904162207 80 209 7.0 14.0 0.00 0.00 0.00 62 1013.8
20260904161658 80 223 11.0 14.0 0.00 0.00 0.00 61 1013.7
20260904161250 80 232 8.0 12.0 0.00 0.00 0.00 60 1013.6
20260904161146 80 234 8.0 12.0 0.00 0.00 0.00 59 1013.6
20260904160657 81 260 8.0 11.0 0.00 0.00 0.00 57 1013.7
20260904160253 81 238 2.0 12.0 0.00 0.00 0.00 54 1013.7
20260904160206 82 123 2.0 13.0 0.00 0.00 0.00 53 1013.7
20260904155656 82 279 8.0 34.0 0.00 0.00 0.00 49 1013.7
20260904155311 82 45 8.0 34.0 0.00 0.00 0.00 47 1013.1
20260904155142 81 136 10.0 34.0 0.00 0.00 0.00 42 1013.1
20260904154651 78 169 14.0 17.0 0.00 0.00 0.00 62 1013.7
20260904154244 78 200 9.0 12.0 0.00 0.00 0.00 60 1013.8
20260904154156 78 192 8.0 12.0 0.00 0.00 0.00 61 1013.8
20260904153646 78 244 7.0 12.0 0.00 0.00 0.00 61 1013.8
20260904153302 78 205 7.0 12.0 0.00 0.00 0.00 62 1013.9
20260904153154 78 215 7.0 12.0 0.00 0.00 0.00 61 1013.8
20260904152642 78 198 9.0 14.0 0.00 0.00 0.00 61 1013.8
20260904152259 78 200 8.0 14.0 0.00 0.00 0.00 61 1013.8
20260904152212 78 198 8.0 17.0 0.00 0.00 0.00 61 1013.8
20260904151645 78 192 11.0 17.0 0.00 0.00 0.00 60 1013.8
20260904151257 77 193 10.0 13.0 0.00 0.00 0.00 61 1013.8
20260904151155 77 203 9.0 13.0 0.00 0.00 0.00 61 1013.8
20260904150644 77 209 9.0 16.0 0.00 0.00 0.00 62 1013.7
20260904150240 77 196 10.0 16.0 0.00 0.00 0.00 61 1013.7
20260904150154 77 188 10.0 16.0 0.00 0.00 0.00 61 1013.7
20260904145644 77 215 11.0 16.0 0.00 0.00 0.00 61 1013.7
20260904145240 77 202 10.0 17.0 0.00 0.00 0.00 61 1013.7
20260904145154 77 188 11.0 17.0 0.00 0.00 0.00 61 1013.7
20260904144644 77 196 13.0 18.0 0.00 0.00 0.00 61 1013.6
20260904144320 77 224 11.0 18.0 0.00 0.00 0.00 62 1013.6
20260904144151 77 202 11.0 18.0 0.00 0.00 0.00 62 1013.6
20260904143721 77 185 11.0 17.0 0.00 0.00 0.00 63 1013.5
20260904143255 77 199 12.0 17.0 0.00 0.00 0.00 63 1013.4
20260904143146 77 193 12.0 22.0 0.00 0.00 0.00 63 1013.5
20260904142656 77 188 12.0 22.0 0.00 0.00 0.00 63 1013.5
20260904142253 77 198 15.0 20.0 0.00 0.00 0.00 62 1013.4
20260904142150 77 177 14.0 20.0 0.00 0.00 0.00 62 1013.4
20260904141640 77 188 13.0 23.0 0.00 0.00 0.00 63 1013.5
20260904141256 76 215 14.0 23.0 0.00 0.00 0.00 64 1013.4
20260904141150 76 201 14.0 20.0 0.00 0.00 0.00 64 1013.4
20260904140700 75 215 14.0 19.0 0.00 0.00 0.00 65 1013.4
20260904140256 75 155 12.0 20.0 0.00 0.00 0.00 66 1013.4
20260904140209 75 178 14.0 21.0 0.00 0.00 0.00 66 1013.3
20260904135717 74 166 15.0 21.0 0.00 0.00 0.00 68 1013.3
20260904135252 73 187 14.0 19.0 0.00 0.00 0.00 68 1013.3
20260904135145 73 173 15.0 20.0 0.00 0.00 0.00 69 1013.3
20260904134656 72 171 13.0 18.0 0.00 0.00 0.00 70 1013.3
20260904134253 72 175 15.0 19.0 0.00 0.00 0.00 70 1013.3
20260904134206 72 153 14.0 22.0 0.00 0.00 0.00 70 1013.3
20260904133655 71 178 13.0 19.0 0.00 0.00 0.00 71 1013.1
20260904133250 71 178 14.0 20.0 0.00 0.00 0.00 73 1013.2
20260904133142 71 154 14.0 16.0 0.00 0.00 0.00 73 1013.2
20260904132653 70 169 12.0 16.0 0.00 0.00 0.00 75 1013.1
20260904132244 69 161 11.0 15.0 0.00 0.00 0.00 76 1013.1
20260904132201 69 179 9.0 12.0 0.00 0.00 0.00 76 1013.1
20260904131648 68 198 11.0 12.0 0.00 0.00 0.00 76 1013.1
20260904131245 68 172 10.0 13.0 0.00 0.00 0.00 76 1013.1
20260904131155 68 177 10.0 12.0 0.00 0.00 0.00 76 1013.0
20260904130645 68 180 10.0 12.0 0.00 0.00 0.00 77 1013.1
20260904130241 67 186 10.0 12.0 0.00 0.00 0.00 78 1013.0
20260904130153 67 177 10.0 14.0 0.00 0.00 0.00 78 1013.0
20260904125642 67 192 8.0 12.0 0.00 0.00 0.00 78 1012.9
20260904125259 67 176 10.0 12.0 0.00 0.00 0.00 78 1012.8
20260904125148 67 162 9.0 13.0 0.00 0.00 0.00 78 1012.9
20260904124658 67 180 9.0 13.0 0.00 0.00 0.00 78 1012.8
20260904124254 67 189 10.0 13.0 0.00 0.00 0.00 78 1012.8
20260904124147 67 178 10.0 14.0 0.00 0.00 0.00 78 1012.8
20260904123641 67 173 11.0 15.0 0.00 0.00 0.00 78 1012.8
20260904123254 67 197 9.0 15.0 0.00 0.00 0.00 77 1012.8
20260904123151 67 167 9.0 15.0 0.00 0.00 0.00 77 1012.8
20260904122700 67 171 11.0 15.0 0.00 0.00 0.00 77 1012.7
20260904122315 67 157 10.0 14.0 0.00 0.00 0.00 77 1012.7
20260904122207 67 176 10.0 13.0 0.00 0.00 0.00 77 1012.7
20260904121656 67 155 9.0 13.0 0.00 0.00 0.00 77 1012.6
20260904121253 67 172 9.0 13.0 0.00 0.00 0.00 76 1012.6
20260904121145 67 178 9.0 13.0 0.00 0.00 0.00 76 1012.5
20260904120654 67 140 10.0 13.0 0.00 0.00 0.00 76 1012.5
20260904120251 67 158 9.0 15.0 0.00 0.00 0.00 76 1012.5
20260904120143 67 160 9.0 13.0 0.00 0.00 0.00 76 1012.5
20260904115653 67 147 9.0 14.0 0.00 0.00 0.00 76 1012.4
20260904115250 68 159 10.0 14.0 0.00 0.00 0.00 76 1012.4
20260904115143 68 143 9.0 13.0 0.00 0.00 0.00 76 1012.4
20260904114657 68 140 9.0 15.0 0.00 0.00 0.00 76 1012.4
20260904114250 68 164 9.0 15.0 0.00 0.00 0.00 76 1012.5
20260904114147 68 152 9.0 15.0 0.00 0.00 0.00 76 1012.5
20260904113658 68 161 8.0 14.0 0.00 0.00 0.00 75 1012.4
20260904113314 68 182 8.0 14.0 0.00 0.00 0.00 75 1012.4
20260904113144 68 169 8.0 14.0 0.00 0.00 0.00 75 1012.4
20260904112654 68 151 9.0 14.0 0.00 0.00 0.00 75 1012.5
20260904112251 68 147 9.0 14.0 0.00 0.00 0.00 75 1012.5
20260904112204 68 155 10.0 14.0 0.00 0.00 0.00 75 1012.4
20260904111652 68 148 9.0 13.0 0.00 0.00 0.00 75 1012.5
20260904111248 68 171 8.0 11.0 0.00 0.00 0.00 75 1012.6
20260904111202 68 171 7.0 11.0 0.00 0.00 0.00 75 1012.5
20260904110649 68 150 9.0 11.0 0.00 0.00 0.00 75 1012.6
20260904110244 69 159 9.0 11.0 0.00 0.00 0.00 75 1012.6
20260904110157 69 147 8.0 11.0 0.00 0.00 0.00 75 1012.6
20260904105707 69 148 8.0 12.0 0.00 0.00 0.00 75 1012.7
20260904105322 69 140 8.0 11.0 0.00 0.00 0.00 74 1012.7
20260904105152 69 150 8.0 11.0 0.00 0.00 0.00 74 1012.6
20260904104645 69 149 8.0 11.0 0.00 0.00 0.00 74 1012.7
20260904104258 70 146 8.0 11.0 0.00 0.00 0.00 73 1012.7
20260904104214 70 158 8.0 11.0 0.00 0.00 0.00 73 1012.7
20260904103642 70 144 8.0 10.0 0.00 0.00 0.00 72 1012.7
20260904103313 70 178 8.0 10.0 0.00 0.00 0.00 72 1012.7
20260904103148 70 151 8.0 11.0 0.00 0.00 0.00 72 1012.7
20260904102718 70 153 8.0 12.0 0.00 0.00 0.00 72 1012.6
20260904102251 70 155 7.0 12.0 0.00 0.00 0.00 72 1012.6
20260904102145 70 196 8.0 12.0 0.00 0.00 0.00 72 1012.6
20260904101655 70 159 8.0 12.0 0.00 0.00 0.00 71 1012.6
20260904101251 70 141 8.0 12.0 0.00 0.00 0.00 71 1012.6
20260904101203 70 134 8.0 12.0 0.00 0.00 0.00 71 1012.6
20260904100652 71 155 8.0 12.0 0.00 0.00 0.00 70 1012.6
20260904100249 71 140 7.0 12.0 0.00 0.00 0.00 70 1012.6
20260904100201 71 142 8.0 12.0 0.00 0.00 0.00 70 1012.6
20260904095649 71 129 8.0 10.0 0.00 0.00 0.00 69 1012.6
20260904095246 71 170 7.0 10.0 0.00 0.00 0.00 69 1012.6
20260904095159 71 153 7.0 10.0 0.00 0.00 0.00 69 1012.6
20260904094654 72 155 7.0 10.0 0.00 0.00 0.00 68 1012.6
20260904094305 72 155 6.0 9.0 0.00 0.00 0.00 68 1012.6
20260904094200 72 127 6.0 9.0 0.00 0.00 0.00 68 1012.6
20260904093650 72 180 7.0 12.0 0.00 0.00 0.00 67 1012.6
20260904093246 72 177 7.0 12.0 0.00 0.00 0.00 67 1012.5
20260904093200 72 150 7.0 12.0 0.00 0.00 0.00 67 1012.4
20260904092649 72 175 9.0 12.0 0.00 0.00 0.00 67 1012.4
20260904092244 72 163 9.0 15.0 0.00 0.00 0.00 67 1012.3
20260904092216 72 146 9.0 15.0 0.00 0.00 0.00 67 1012.3
20260904091645 72 192 10.0 15.0 0.00 0.00 0.00 67 1012.3
20260904091259 72 169 10.0 15.0 0.00 0.00 0.00 67 1012.3
20260904091151 72 150 10.0 15.0 0.00 0.00 0.00 67 1012.3
20260904090642 72 161 9.0 13.0 0.00 0.00 0.00 67 1012.3
20260904090258 72 183 9.0 14.0 0.00 0.00 0.00 67 1012.3
20260904090151 72 144 9.0 14.0 0.00 0.00 0.00 67 1012.3
20260904085700 72 190 10.0 15.0 0.00 0.00 0.00 67 1012.3
20260904085316 72 148 9.0 15.0 0.00 0.00 0.00 67 1012.3
20260904085145 72 146 8.0 14.0 0.00 0.00 0.00 67 1012.3
20260904084700 72 140 9.0 15.0 0.00 0.00 0.00 67 1012.3
20260904084252 72 162 10.0 16.0 0.00 0.00 0.00 68 1012.3
20260904084209 72 164 9.0 16.0 0.00 0.00 0.00 67 1012.4
20260904083659 72 151 11.0 16.0 0.00 0.00 0.00 68 1012.4
20260904083255 72 151 9.0 12.0 0.00 0.00 0.00 67 1012.4
20260904083148 72 164 9.0 12.0 0.00 0.00 0.00 68 1012.4
20260904082656 72 136 9.0 14.0 0.00 0.00 0.00 67 1012.4
20260904082254 72 161 8.0 14.0 0.00 0.00 0.00 67 1012.4
20260904082147 72 150 9.0 14.0 0.00 0.00 0.00 67 1012.4
20260904081716 72 134 8.0 12.0 0.00 0.00 0.00 66 1012.5
20260904081310 72 150 9.0 13.0 0.00 0.00 0.00 66 1012.4
20260904081203 72 162 8.0 11.0 0.00 0.00 0.00 66 1012.4
20260904080652 73 149 8.0 12.0 0.00 0.00 0.00 66 1012.6
20260904080249 73 122 8.0 12.0 0.00 0.00 0.00 66 1012.6
20260904080141 73 146 9.0 13.0 0.00 0.00 0.00 65 1012.6
20260904075712 73 177 8.0 13.0 0.00 0.00 0.00 65 1012.7
20260904075248 73 172 8.0 14.0 0.00 0.00 0.00 65 1012.7
20260904075141 73 144 9.0 14.0 0.00 0.00 0.00 65 1012.7
20260904074711 73 154 10.0 15.0 0.00 0.00 0.00 65 1012.8
20260904074246 73 125 11.0 16.0 0.00 0.00 0.00 65 1012.8
20260904074204 73 132 11.0 16.0 0.00 0.00 0.00 65 1012.9
20260904073653 73 155 12.0 16.0 0.00 0.00 0.00 65 1013.0
20260904073305 73 144 11.0 15.0 0.00 0.00 0.00 65 1012.9
20260904073141 73 165 10.0 15.0 0.00 0.00 0.00 65 1013.0
20260904072651 72 149 11.0 15.0 0.00 0.00 0.00 66 1013.0
20260904072247 72 103 11.0 15.0 0.00 0.00 0.00 66 1012.8
20260904072200 72 157 10.0 15.0 0.00 0.00 0.00 66 1012.8
20260904071650 72 161 7.0 12.0 0.00 0.00 0.00 67 1012.7
20260904071247 72 144 7.0 10.0 0.00 0.00 0.00 68 1012.7
20260904071220 72 158 7.0 9.0 0.00 0.00 0.00 68 1012.7
20260904070649 71 150 6.0 10.0 0.00 0.00 0.00 68 1012.6
20260904070245 71 155 8.0 11.0 0.00 0.00 0.00 69 1012.6
20260904070219 71 137 7.0 11.0 0.00 0.00 0.00 69 1012.7
20260904065648 71 155 7.0 11.0 0.00 0.00 0.00 70 1012.8
20260904065244 72 145 8.0 10.0 0.00 0.00 0.00 70 1012.8
20260904065156 72 130 8.0 10.0 0.00 0.00 0.00 70 1012.8
20260904064646 72 138 4.0 8.0 0.00 0.00 0.00 70 1012.8
20260904064240 71 125 4.0 8.0 0.00 0.00 0.00 70 1012.8
20260904064214 71 155 4.0 8.0 0.00 0.00 0.00 71 1012.9
20260904063706 71 202 3.0 7.0 0.00 0.00 0.00 71 1012.8
20260904063316 71 194 3.0 6.0 0.00 0.00 0.00 71 1012.9
20260904063152 71 157 3.0 6.0 0.00 0.00 0.00 71 1012.9
20260904062702 71 153 3.0 6.0 0.00 0.00 0.00 72 1012.9
20260904062253 71 161 3.0 5.0 0.00 0.00 0.00 71 1012.9
20260904062150 71 151 3.0 6.0 0.00 0.00 0.00 71 1012.9
20260904061700 71 167 4.0 7.0 0.00 0.00 0.00 72 1013.0
20260904061256 71 138 3.0 7.0 0.00 0.00 0.00 72 1013.0
20260904061148 71 111 3.0 7.0 0.00 0.00 0.00 72 1013.0
20260904060718 71 138 3.0 6.0 0.00 0.00 0.00 72 1013.0
20260904060314 71 104 2.0 7.0 0.00 0.00 0.00 72 1013.0
20260904060207 71 140 3.0 7.0 0.00 0.00 0.00 72 1013.0
20260904055655 71 74 4.0 7.0 0.00 0.00 0.00 72 1013.0
20260904055253 71 92 3.0 7.0 0.00 0.00 0.00 72 1013.0
20260904055145 71 28 3.0 7.0 0.00 0.00 0.00 72 1013.0
20260904054655 71 68 4.0 8.0 0.00 0.00 0.00 71 1013.0
20260904054252 71 83 6.0 8.0 0.00 0.00 0.00 71 1013.0
20260904054144 71 82 6.0 8.0 0.00 0.00 0.00 71 1013.0
20260904053711 72 87 4.0 9.0 0.00 0.00 0.00 71 1013.0
20260904053244 72 65 5.0 9.0 0.00 0.00 0.00 71 1013.0
20260904053155 72 92 5.0 9.0 0.00 0.00 0.00 70 1013.0
20260904052649 72 88 3.0 10.0 0.00 0.00 0.00 70 1013.0
20260904052321 72 86 5.0 10.0 0.00 0.00 0.00 69 1012.9
20260904052156 72 79 4.0 10.0 0.00 0.00 0.00 69 1013.0
20260904051706 73 80 6.0 11.0 0.00 0.00 0.00 69 1012.7
20260904051257 73 88 9.0 11.0 0.00 0.00 0.00 68 1012.7
20260904051153 73 73 9.0 11.0 0.00 0.00 0.00 68 1012.7
20260904050643 73 116 8.0 10.0 0.00 0.00 0.00 68 1012.8
20260904050259 73 80 8.0 10.0 0.00 0.00 0.00 68 1012.7
20260904050152 73 84 8.0 10.0 0.00 0.00 0.00 68 1012.7
20260904045641 72 82 7.0 10.0 0.00 0.00 0.00 69 1012.8
20260904045258 72 92 7.0 10.0 0.00 0.00 0.00 69 1012.8
20260904045151 72 88 7.0 10.0 0.00 0.00 0.00 69 1012.9
20260904044701 71 109 3.0 11.0 0.00 0.00 0.00 70 1013.0
20260904044257 71 165 5.0 12.0 0.00 0.00 0.00 69 1013.2
20260904044208 71 136 4.0 12.0 0.00 0.00 0.00 69 1013.1
20260904043717 72 146 8.0 11.0 0.00 0.00 0.00 68 1013.3
20260904043253 72 155 9.0 11.0 0.00 0.00 0.00 67 1013.3
20260904043207 72 144 9.0 11.0 0.00 0.00 0.00 67 1013.2
20260904042656 73 148 3.0 8.0 0.00 0.00 0.00 66 1013.1
20260904042250 74 161 3.0 9.0 0.00 0.00 0.00 64 1013.1
20260904042146 74 44 3.0 9.0 0.00 0.00 0.00 64 1013.1
20260904041654 74 91 7.0 9.0 0.00 0.00 0.00 63 1013.1
20260904041250 74 81 6.0 9.0 0.00 0.00 0.00 62 1013.2
20260904041143 74 111 6.0 9.0 0.00 0.00 0.00 62 1013.1
20260904040650 74 106 7.0 9.0 0.00 0.00 0.00 61 1013.1
20260904040247 74 83 7.0 9.0 0.00 0.00 0.00 61 1013.1
20260904040220 74 83 7.0 9.0 0.00 0.00 0.00 61 1013.2
20260904035648 75 88 7.0 9.0 0.00 0.00 0.00 60 1013.1
20260904035243 75 90 7.0 9.0 0.00 0.00 0.00 60 1013.1
20260904035156 75 72 7.0 9.0 0.00 0.00 0.00 60 1013.0
20260904034646 75 89 6.0 10.0 0.00 0.00 0.00 60 1013.0
20260904034243 75 72 7.0 11.0 0.00 0.00 0.00 59 1012.9
20260904034156 75 80 7.0 11.0 0.00 0.00 0.00 59 1012.9
20260904033644 76 94 7.0 12.0 0.00 0.00 0.00 59 1012.9
20260904033241 76 88 8.0 13.0 0.00 0.00 0.00 58 1012.8
20260904033154 76 78 9.0 14.0 0.00 0.00 0.00 58 1012.9
20260904032709 76 71 9.0 14.0 0.00 0.00 0.00 58 1012.8
20260904032300 76 76 9.0 12.0 0.00 0.00 0.00 58 1012.7
20260904032157 76 88 10.0 12.0 0.00 0.00 0.00 58 1012.8
20260904031649 76 69 9.0 12.0 0.00 0.00 0.00 58 1012.7
20260904031245 75 68 9.0 11.0 0.00 0.00 0.00 59 1012.7
20260904031158 75 81 9.0 11.0 0.00 0.00 0.00 59 1012.6
20260904030709 75 86 8.0 11.0 0.00 0.00 0.00 59 1012.7
20260904030304 76 65 7.0 12.0 0.00 0.00 0.00 58 1012.7
20260904030154 76 70 8.0 12.0 0.00 0.00 0.00 58 1012.7
20260904025644 76 61 10.0 12.0 0.00 0.00 0.00 54 1012.7
20260904025258 77 90 9.0 10.0 0.00 0.00 0.00 55 1012.6
20260904025151 77 92 8.0 10.0 0.00 0.00 0.00 55 1012.5
20260904024700 77 101 7.0 10.0 0.00 0.00 0.00 55 1012.4
20260904024317 76 78 7.0 10.0 0.00 0.00 0.00 55 1012.4
20260904024148 77 127 8.0 10.0 0.00 0.00 0.00 55 1012.4
20260904023658 77 70 4.0 10.0 0.00 0.00 0.00 56 1012.3
20260904023316 77 66 7.0 10.0 0.00 0.00 0.00 56 1012.3
20260904023148 77 80 7.0 10.0 0.00 0.00 0.00 56 1012.3
20260904022700 77 92 5.0 9.0 0.00 0.00 0.00 57 1012.3
20260904022253 77 116 5.0 8.0 0.00 0.00 0.00 57 1012.2
20260904022150 77 169 4.0 9.0 0.00 0.00 0.00 57 1012.2
20260904021701 77 82 3.0 9.0 0.00 0.00 0.00 57 1012.1
20260904021257 77 86 7.0 9.0 0.00 0.00 0.00 56 1012.1
20260904021150 77 61 6.0 9.0 0.00 0.00 0.00 56 1012.0
20260904020701 78 96 3.0 7.0 0.00 0.00 0.00 57 1012.0
20260904020257 78 106 4.0 9.0 0.00 0.00 0.00 56 1012.0
20260904020149 78 61 4.0 9.0 0.00 0.00 0.00 56 1011.9
20260904015719 79 100 6.0 9.0 0.00 0.00 0.00 55 1011.8
20260904015254 79 86 7.0 9.0 0.00 0.00 0.00 54 1011.7
20260904015148 79 86 7.0 9.0 0.00 0.00 0.00 54 1011.7
20260904014716 79 63 7.0 9.0 0.00 0.00 0.00 54 1011.7
20260904014252 80 95 7.0 10.0 0.00 0.00 0.00 53 1011.6
20260904014206 80 98 6.0 10.0 0.00 0.00 0.00 53 1011.5
20260904013714 82 60 6.0 10.0 0.00 0.00 0.00 51 1011.5
20260904013248 83 85 6.0 10.0 0.00 0.00 0.00 49 1011.4
20260904013221 83 95 7.0 10.0 0.00 0.00 0.00 48 1011.4
20260904012653 83 80 8.0 10.0 0.00 0.00 0.00 48 1011.4
20260904012246 83 84 8.0 10.0 0.00 0.00 0.00 48 1011.3
20260904012204 83 88 8.0 10.0 0.00 0.00 0.00 48 1011.3
20260904011651 84 81 7.0 10.0 0.00 0.00 0.00 47 1011.3
20260904011249 84 56 8.0 10.0 0.00 0.00 0.00 47 1011.2
20260904011202 84 77 8.0 10.0 0.00 0.00 0.00 47 1011.2
20260904010650 85 84 8.0 10.0 0.00 0.00 0.00 47 1011.2
20260904010246 85 71 7.0 10.0 0.00 0.00 0.00 47 1011.2
20260904010159 86 81 7.0 10.0 0.00 0.00 0.00 46 1011.2
20260904005650 86 85 8.0 9.0 0.00 0.00 0.00 47 1011.2
20260904005246 87 78 6.0 10.0 0.00 0.00 0.00 46 1011.3
20260904005159 87 54 6.0 10.0 0.00 0.00 0.00 45 1011.2
20260904004710 88 71 5.0 10.0 0.00 0.00 0.00 43 1011.3
20260904004245 89 62 7.0 10.0 0.00 0.00 0.00 42 1011.2
20260904004217 89 55 7.0 10.0 0.00 0.00 0.00 42 1011.2
20260904003647 90 50 8.0 10.0 0.00 0.00 0.00 40 1011.2
20260904003244 91 63 6.0 9.0 0.00 0.00 0.00 39 1011.2
20260904003201 92 62 6.0 9.0 0.00 0.00 0.00 39 1011.2
20260904002650 93 53 4.0 6.0 0.00 0.00 0.00 36 1011.2
20260904002248 93 58 3.0 4.0 0.00 0.00 0.00 34 1011.1
20260904002200 93 53 3.0 4.0 0.00 0.00 0.00 33 1011.2
20260904001651 94 33 1.0 3.0 0.00 0.00 0.00 30 1011.2
20260904001306 94 23 1.0 3.0 0.00 0.00 0.00 31 1011.2
20260904001156 94 23 1.0 3.0 0.00 0.00 0.00 30 1011.1
20260904000645 95 355 1.0 4.0 0.00 0.00 0.00 30 1011.1
20260904000320 95 355 2.0 5.0 0.00 0.00 0.00 28 1011.1
20260904000153 95 325 2.0 6.0 0.00 0.00 0.00 30 1011.2
20260903235704 95 327 3.0 6.0 0.00 0.00 0.00 30 1011.1
20260903235257 95 312 4.0 5.0 0.00 0.00 0.00 29 1011.2
20260903235151 95 302 4.0 5.0 0.00 0.00 0.00 30 1011.2
20260903234700 95 326 4.0 8.0 0.00 0.00 0.00 29 1011.2
20260903234256 95 309 3.0 8.0 0.00 0.00 0.00 30 1011.2
20260903234153 95 311 3.0 8.0 0.00 0.00 0.00 30 1011.2
20260903233642 95 298 4.0 6.0 0.00 0.00 0.00 31 1011.1
20260903233314 96 331 4.0 6.0 0.00 0.00 0.00 30 1011.2
20260903233210 96 305 4.0 6.0 0.00 0.00 0.00 30 1011.2
20260903232659 96 292 5.0 8.0 0.00 0.00 0.00 30 1011.2
20260903232255 96 329 4.0 8.0 0.00 0.00 0.00 31 1011.3
20260903232208 97 333 4.0 8.0 0.00 0.00 0.00 29 1011.3
20260903231655 97 306 5.0 9.0 0.00 0.00 0.00 27 1011.2
20260903231312 98 314 6.0 9.0 0.00 0.00 0.00 26 1011.3
20260903231144 98 327 5.0 9.0 0.00 0.00 0.00 28 1011.3
20260903230653 98 317 6.0 13.0 0.00 0.00 0.00 26 1011.3
20260903230249 98 317 7.0 13.0 0.00 0.00 0.00 28 1011.3
20260903230142 98 253 6.0 9.0 0.00 0.00 0.00 28 1011.3
20260903225652 98 298 4.0 9.0 0.00 0.00 0.00 28 1011.4
20260903225308 98 229 6.0 9.0 0.00 0.00 0.00 28 1011.4
20260903225159 98 257 5.0 9.0 0.00 0.00 0.00 27 1011.4
20260903224649 98 226 6.0 9.0 0.00 0.00 0.00 28 1011.3
20260903224302 99 286 5.0 9.0 0.00 0.00 0.00 27 1011.4
20260903224154 99 275 6.0 9.0 0.00 0.00 0.00 27 1011.3
20260903223644 99 251 6.0 9.0 0.00 0.00 0.00 27 1011.4
20260903223301 98 288 5.0 11.0 0.00 0.00 0.00 27 1011.4
20260903223157 98 235 5.0 11.0 0.00 0.00 0.00 28 1011.4
20260903222648 98 296 7.0 12.0 0.00 0.00 0.00 27 1011.5
20260903222244 98 311 7.0 12.0 0.00 0.00 0.00 27 1011.5
20260903222157 98 265 7.0 12.0 0.00 0.00 0.00 27 1011.5
20260903221647 99 278 8.0 12.0 0.00 0.00 0.00 27 1011.6
20260903221243 99 256 6.0 14.0 0.00 0.00 0.00 28 1011.6
20260903221217 99 241 6.0 14.0 0.00 0.00 0.00 27 1011.6
20260903220706 99 237 9.0 14.0 0.00 0.00 0.00 26 1011.8
20260903220301 99 260 3.0 12.0 0.00 0.00 0.00 28 1011.7
20260903220154 99 315 3.0 12.0 0.00 0.00 0.00 28 1011.8
20260903215704 99 245 5.0 12.0 0.00 0.00 0.00 29 1011.8
20260903215300 99 165 6.0 10.0 0.00 0.00 0.00 25 1011.9
20260903215213 99 277 6.0 10.0 0.00 0.00 0.00 30 1011.9
20260903214642 99 291 6.0 10.0 0.00 0.00 0.00 28 1011.9
20260903214300 99 266 1.0 7.0 0.00 0.00 0.00 28 1011.9
20260903214212 99 219 1.0 7.0 0.00 0.00 0.00 29 1011.9
20260903213659 99 239 4.0 9.0 0.00 0.00 0.00 29 1011.9
20260903213256 99 329 3.0 9.0 0.00 0.00 0.00 30 1011.9
20260903213149 99 323 5.0 9.0 0.00 0.00 0.00 29 1011.9
20260903212642 99 284 5.0 12.0 0.00 0.00 0.00 31 1011.9
20260903212255 99 332 4.0 12.0 0.00 0.00 0.00 31 1011.8
20260903212150 98 253 7.0 12.0 0.00 0.00 0.00 31 1011.9
20260903211700 98 251 3.0 10.0 0.00 0.00 0.00 33 1012.0
20260903211257 98 300 6.0 10.0 0.00 0.00 0.00 34 1012.0
20260903211150 98 284 6.0 10.0 0.00 0.00 0.00 33 1012.0
20260903210700 97 303 4.0 9.0 0.00 0.00 0.00 32 1012.1
20260903210256 97 178 4.0 10.0 0.00 0.00 0.00 30 1012.1
20260903210149 97 202 4.0 10.0 0.00 0.00 0.00 29 1012.1
20260903205658 97 279 3.0 9.0 0.00 0.00 0.00 29 1012.1
20260903205254 97 211 4.0 10.0 0.00 0.00 0.00 29 1012.2
20260903205147 97 207 4.0 10.0 0.00 0.00 0.00 29 1012.3
20260903204657 97 223 5.0 10.0 0.00 0.00 0.00 28 1012.3
20260903204313 98 236 4.0 9.0 0.00 0.00 0.00 30 1012.4
20260903204149 98 5 3.0 9.0 0.00 0.00 0.00 30 1012.3
20260903203659 97 332 4.0 8.0 0.00 0.00 0.00 28 1012.4
20260903203254 97 269 3.0 8.0 0.00 0.00 0.00 31 1012.4
20260903203148 98 342 3.0 8.0 0.00 0.00 0.00 29 1012.4
20260903202657 98 288 5.0 8.0 0.00 0.00 0.00 31 1012.4
20260903202254 98 302 6.0 8.0 0.00 0.00 0.00 31 1012.5
20260903202147 98 289 6.0 8.0 0.00 0.00 0.00 29 1012.5
20260903201657 97 223 5.0 11.0 0.00 0.00 0.00 30 1012.5
20260903201254 97 234 8.0 11.0 0.00 0.00 0.00 30 1012.6
20260903201147 97 246 6.0 11.0 0.00 0.00 0.00 31 1012.6
20260903200656 97 205 4.0 10.0 0.00 0.00 0.00 28 1012.6
20260903200251 97 275 5.0 9.0 0.00 0.00 0.00 30 1012.6
20260903200143 97 317 3.0 9.0 0.00 0.00 0.00 34 1012.6
20260903195657 97 303 6.0 11.0 0.00 0.00 0.00 30 1012.6
20260903195249 97 276 6.0 11.0 0.00 0.00 0.00 29 1012.6
20260903195146 97 296 8.0 13.0 0.00 0.00 0.00 28 1012.6
20260903194717 97 292 4.0 13.0 0.00 0.00 0.00 30 1012.6
20260903194252 97 325 6.0 12.0 0.00 0.00 0.00 32 1012.6
20260903194145 97 293 2.0 10.0 0.00 0.00 0.00 33 1012.7
20260903193655 97 251 6.0 15.0 0.00 0.00 0.00 30 1012.7
20260903193252 97 252 7.0 15.0 0.00 0.00 0.00 30 1012.7
20260903193145 97 203 8.0 15.0 0.00 0.00 0.00 30 1012.7
20260903192654 97 252 10.0 14.0 0.00 0.00 0.00 32 1012.7
20260903192250 97 319 8.0 13.0 0.00 0.00 0.00 32 1012.8
20260903192143 97 312 8.0 13.0 0.00 0.00 0.00 33 1012.8
20260903191653 96 306 8.0 17.0 0.00 0.00 0.00 30 1012.8
20260903191250 96 319 7.0 17.0 0.00 0.00 0.00 31 1012.8
20260903191147 96 275 10.0 17.0 0.00 0.00 0.00 29 1012.8
20260903190656 96 310 7.0 15.0 0.00 0.00 0.00 34 1012.8
20260903190252 96 309 10.0 15.0 0.00 0.00 0.00 30 1012.8
20260903190144 96 325 6.0 14.0 0.00 0.00 0.00 30 1012.9
20260903185714 96 319 8.0 14.0 0.00 0.00 0.00 35 1012.9
20260903185250 96 355 8.0 14.0 0.00 0.00 0.00 35 1012.9
20260903185144 96 307 9.0 15.0 0.00 0.00 0.00 32 1012.9
20260903184654 95 337 8.0 15.0 0.00 0.00 0.00 31 1012.9
20260903184309 95 271 9.0 17.0 0.00 0.00 0.00 29 1013.0
20260903184221 95 309 9.0 17.0 0.00 0.00 0.00 31 1013.0
20260903183647 95 279 9.0 17.0 0.00 0.00 0.00 32 1013.0
20260903183303 95 288 9.0 15.0 0.00 0.00 0.00 31 1013.1
20260903183155 95 314 9.0 15.0 0.00 0.00 0.00 30 1013.1
20260903182704 95 325 10.0 17.0 0.00 0.00 0.00 33 1013.1
20260903182257 95 333 12.0 17.0 0.00 0.00 0.00 35 1013.2
20260903182209 95 333 13.0 17.0 0.00 0.00 0.00 32 1013.2
20260903181658 95 296 10.0 15.0 0.00 0.00 0.00 34 1013.2
20260903181253 95 314 11.0 16.0 0.00 0.00 0.00 32 1013.3
20260903181145 95 323 10.0 16.0 0.00 0.00 0.00 34 1013.3
20260903180657 95 293 9.0 16.0 0.00 0.00 0.00 34 1013.3